STARLINK-11256, 60904

Orbit data source: Space-Track

STARLINK-11256, 60904 is a payload satellite owned by SpaceX/Seattle (US) in LEO that was launched on Sat, 31 Aug 2024 UTC via an FALCON 9 launch vehicle from the Air Force Eastern Test Range (AFETR). Payload-class satellites include a variety of spacecraft equipped with specific instruments for various scientific and technological missions. These include communications satellites like Starlink; space stations such as the ISS; scientific satellites like the Hubble; Earth observation satellites from companies like Planet Labs, Umbra, and HawkEye 360; GPS; miniature CubeSats for education and research; and military/defense satellites.

Loading next visibility...
Identifier
60904, 2024-154B
Orbit
LEO
Country
Flag of USUS
Related business
Manufacturer
SpaceX/Seattle
Mission
Operational Commercial Communications
Bus & Motor
STARLINK V2MD, Unknown motor
Mass
960 kg wet, ~910 kg dry
Launch date (UTC)
2024-08-31 (2 years ago)
Launch vehicle
FALCON 9
Launch site
Air Force Eastern Test Range (AFETR)
Object type
Payload
Rocket body
Debris
Shape & HBR
Box + 2 Pan, 18.1 m
Radar Cross Section
36.964 m², Large (>1 m²)

Expand to show TLE details & history
Last TLE update: 2 days ago

TLE from 2 days ago
0 STARLINK-11256
1 60904U 24154B   26174.15783924 -.00000312  00000-0  22810-5 0  9999
2 60904  53.1594 331.0314 0000911  88.7398 271.3724 15.69707076105085
Epoch: 2026-06-23T03:47Z
TLE epoch observation values (Epoch: 2026-06-23T03:47:17.310Z)
Latitude
-0.00004°
Longitude
2.87582°
Altitude
360.635 km
Speed
7.694 km/s
True Right ascension
22h 04m 07s
True Declination
0° 00' 00"
Sunlit
Object was in full shadow at epoch
Visualization orbit readout
Latitude
Unknown
Longitude
Unknown
Altitude
Unknown
Speed
Unknown
Apparent Right ascension
Unknown
Apparent Declination
Unknown
Sunlit
N/A
Visualization observer readout
Local Sidereal Time
16:59:14
Azimuth
Unknown
Elevation
Unknown
Doppler factor
Unknown
Orbital elements
Apogee altitude
360.61 km
Perigee altitude
359.382 km
Semi-major axis
6,738.133 km
Eccentricity
0.00009
Inclination
53.1594°
RAAN
331.0314°
Arg. of periapsis
88.7398°
True anomaly
271.36196°
Mean anomaly
271.3724°
Eccentric anomaly
271.36718°
Mean motion
3.92404 °/min
Orbital period
91.74 mins
BSTAR
0.000002281
Loading maneuver chart data...
Computing Atmospheric mass density...
Loading historical data...
Loading historical data...
Loading historical data...
Loading historical data...
Loading historical data...
Loading historical data...
Loading historical data...

Documentation

Showing up to 5 results
|